Flag for Norway

Past Weather in Leirvik, Norway — Yesterday and Last 2 Weeks

Now
54 °F

Cool.


Feels Like: 54 °F
Forecast: 57 / 53 °F
Wind: 5 mph from Northeast

Location: Slatteroy Fyr

Current Time: Jul 4, 2020 at 8:50:09 am

Latest Report: Jul 4, 2020 at 8:00 am


Visibility: N/A

Pressure: 29.56 "Hg

Humidity: 68%

Dew Point: 44 °F

Location of LeirvikLocation

Past Weather in Leirvik — Graph

°F

Leirvik Temperature Yesterday

Maximum temperature yesterday: 55 °F (at 5:00 pm)
Minimum temperature yesterday: 50 °F (at 6:00 am)
Average temperature yesterday: 52 °F

High & Low Weather Summary for the Past Weeks

 TemperatureHumidityPressure
High68 °F (Jun 19, 7:00 pm)97% (Jun 20, 5:00 am)30.28 "Hg (Jun 20, 5:00 am)
Low50 °F (Jul 3, 6:00 am)54% (Jun 29, 2:00 pm)29.29 "Hg (Jun 30, 10:00 am)
Average58 °F76%29.79 "Hg
* Reported Jun 19 7:00 am — Jul 4 7:00 am, Leirvik. Weather by CustomWeather, © 2020

Note: Actual official high and low records may vary slightly from our data, if they occured in-between our weather recording intervals... More about our weather records

Leirvik Weather History for the Previous 24 Hours

Scroll right to see more
 ConditionsComfort  
Time TempWeatherWind HumidityBarometerVisibility
7:00 am
Sat, Jul 4
54 °FCool.6 mph71%29.56 "HgN/A
6:00 am53 °FCool.6 mph72%29.56 "HgN/A
5:00 am53 °FCool.5 mph72%29.56 "HgN/A
4:00 am53 °FCool.6 mph67%29.55 "HgN/A
3:00 am54 °FCool.7 mph66%29.56 "HgN/A
2:00 am53 °FCool.7 mph67%29.57 "HgN/A
1:00 am54 °FCool.6 mph68%29.58 "HgN/A
12:00 am54 °FCool.2 mph69%29.60 "HgN/A
11:00 pm
Fri, Jul 3
53 °FCool.1 mph71%29.62 "HgN/A
10:00 pm54 °FCool.2 mph70%29.63 "HgN/A
9:00 pm55 °FCool.2 mph62%29.63 "HgN/A
8:00 pm54 °FCool.5 mph65%29.63 "HgN/A
7:00 pm54 °FCool.1 mph62%29.65 "HgN/A
6:00 pm55 °FCool.1 mph63%29.66 "HgN/A
5:00 pm55 °FCool.2 mph67%29.67 "HgN/A
4:00 pm53 °FCool.6 mph71%29.67 "HgN/A
3:00 pm52 °FCool.8 mph75%29.67 "HgN/A
2:00 pm51 °FCool.8 mph77%29.67 "HgN/A
1:00 pm51 °FCool.6 mph78%29.68 "HgN/A
12:00 pm50 °FCool.7 mph83%29.69 "HgN/A
11:00 am51 °FCool.5 mph73%29.69 "HgN/A
10:00 am51 °FCool.5 mph73%29.70 "HgN/A
9:00 am51 °FCool.8 mph72%29.70 "HgN/A
8:00 am51 °FCool.8 mph75%29.69 "HgN/A
Weather by CustomWeather, © 2020

See weather overview